Location: Altenauer Silberh�tten
(51.8167°N, 10.4500°E)
Time: 02:44:09
(UTC+00:00)

Daily predictions for brighter satellites

Satellite Brightness Start Highest point End
(mag) Time Altitude Azimuth Time Altitude Azimuth Time Altitude Azimuth
CENTAUR R/B 3.8 02:03:00 34° ESE 02:03:00 34° ESE 02:08:49 10° NE
CZ-2C R/B 4.4 02:23:30 10° NE 02:27:34 24° E 02:29:29 19° SE
ARIANE 5 R/B 4.2 02:23:04 10° NNE 02:25:19 27° NNE 02:25:19 27° NNE
Cosmos 1697 Rocket 3.4 02:35:00 51° NE 02:35:10 51° NE 02:40:41 10° SE
Cosmos 2344 3.5 02:37:40 66° S 02:38:34 72° SE 02:46:44 10° NE
ADEOS II 4.0 02:33:44 10° N 02:35:25 20° N 02:35:25 20° N
Lacrosse 4 Rocket 3.6 02:42:02 23° ENE 02:42:02 23° ENE 02:44:08 10° NE
USA 238 DEB 3.6 02:41:03 74° SE 02:41:04 74° SE 02:48:01 10° NE
USA 238 3.6 02:41:08 74° SE 02:41:11 74° SE 02:48:07 10° NE
NOSS 3-2 (A) 3.5 02:44:26 75° ENE 02:44:26 75° ENE 02:50:42 10° NE
Lacrosse 5 rocket 3.9 02:50:06 15° ESE 02:50:06 15° ESE 02:51:28 10° E
ATLAS 3B R/B 4.5 02:45:55 10° SSE 02:51:02 25° ESE 02:56:13 10° ENE
Resurs 1-4 Rocket 4.4 02:50:24 10° N 02:50:59 12° NNW 02:50:59 12° NNW
Cosmos 1980 Rocket 3.2 02:54:35 22° NNW 02:57:52 44° NE 03:03:12 10° ESE
USA 234 3.1 02:52:13 10° ENE 02:58:46 76° NNW 02:59:22 71° WNW
SL-16 R/B 4.4 03:00:37 14° NNW 03:00:37 14° NNW 03:03:13 10° N
ADEOS Rocket 2.8 02:57:20 10° SSE 03:02:48 78° ENE 03:08:31 10° NNW
Cosmos 1025 Rocket 4.5 03:05:19 31° NNE 03:05:19 31° NNE 03:07:41 10° NNE
Cosmos 494 Rocket 4.3 03:04:22 58° N 03:04:22 58° N 03:08:40 10° NNE
Cosmos 2180 Rocket 4.4 02:59:22 10° N 03:05:43 86° E 03:11:55 10° S
Spot 4 Rocket 4.5 03:03:16 10° NNE 03:07:10 51° N 03:07:10 51° N
Geosat 4.3 03:04:31 10° SE 03:09:29 65° NE 03:10:58 44° N
Cosmos 1269 Rocket 4.2 03:09:19 61° SSE 03:10:00 68° ESE 03:15:18 10° NNE
CZ-2D R/B 4.5 03:10:08 10° NNW 03:10:17 10° NNW 03:10:17 10° NNW
Cosmos 2360 4.3 03:13:18 36° NNW 03:15:43 76° ENE 03:21:25 10° SE
IDEFIX/ARIANE 42P 3.4 03:15:23 10° N 03:18:52 37° NNW 03:18:52 37° NNW
Intercosmos 24 4.5 03:23:40 10° N 03:27:40 52° ENE 03:31:08 10° SSE
Cosmos 2278 3.9 03:24:14 19° NNW 03:28:22 69° NE 03:34:00 10° SE
Cosmos 2322 Rocket 4.1 03:24:35 10° NNW 03:29:21 26° NE 03:34:04 10° E
COSMO-SKYMED 1 4.4 03:26:57 10° SE 03:30:46 31° ENE 03:34:36 10° N
MSX 3.8 03:25:56 10° N 03:31:35 59° WNW 03:32:03 57° W
Cosmos 220 Rocket 4.0 03:32:31 74° N 03:32:54 85° ENE 03:37:20 10° SSE
Cosmos 1300 3.7 03:29:15 10° N 03:32:57 45° ENE 03:36:38 10° SSE
ALOS 3.6 03:29:08 10° NNE 03:33:32 39° E 03:37:53 10° SSE
In-Cosmos 22 4.0 03:35:42 60° WSW 03:36:18 65° WNW 03:41:46 10° N
Cosmos 2279 Rocket 4.1 03:31:09 10° NNW 03:43:01 10° SSW 03:36:37 48° WNW
CZ-4B R/B 2.0 03:33:50 10° SSE 03:37:08 57° E 03:37:08 57° E
Cosmos 1833 Rocket 3.0 03:33:51 21° S 03:37:40 64° ESE 03:43:16 10° NE
Cosmos 1992 Rocket 3.9 03:34:01 19° NNW 03:37:51 85° ENE 03:43:04 10° SSE
Cosmos 1674 3.8 03:42:36 33° N 03:42:36 33° N 03:44:50 10° N
SL-14 R/B 4.3 03:37:27 10° SSE 03:41:17 46° E 03:45:10 10° NNE
Cosmos 1626 2.8 03:39:54 23° SSE 03:41:56 54° E 03:45:34 10° NNE
CZ-2C R/B 4.5 03:38:59 10° N 03:40:50 24° NNW 03:40:50 24° NNW
Cosmos 1689 Rocket 4.3 03:42:36 10° SE 03:45:06 26° ENE 03:47:36 10° N
NOSS 3-2 (C) 3.4 03:43:21 45° WSW 03:45:19 74° NW 03:52:10 10° NE
Cosmos 1536 Rocket 3.8 03:48:19 50° NW 03:48:19 50° NW 03:52:08 10° N
Cosmos 2058 Rocket 4.1 03:46:30 10° N 03:50:53 47° ENE 03:55:13 10° SSE
Cosmos 2369 3.6 03:49:30 30° NW 03:52:15 61° WSW 03:57:48 10° SSE
CENTAUR R/B 2.6 03:50:11 38° WSW 03:52:50 71° NW 04:00:17 10° NE
Cosmos 1484 Rocket 3.3 03:52:17 10° NNE 03:56:08 57° E 03:59:54 10° S
CBERS 1 LM4 rocket 4.3 03:51:49 10° NNE 03:56:49 88° WNW 04:01:36 10° SSW
Meteor 1-24 Rocket 4.3 03:51:53 10° S 03:57:26 62° E 04:03:15 10° NNE
Cosmos 2082 Rocket 2.8 03:55:07 10° S 04:00:35 57° ESE 04:06:06 10° NE
Cosmos 1461 3.6 03:57:50 20° SSW 04:00:56 59° SE 04:05:36 10° NE
Cosmos 1892 Rocket 4.4 03:58:40 10° S 04:02:53 51° E 04:07:09 10° NNE
PSLV R/B 3.6 04:00:21 10° N 04:04:32 52° WNW 04:05:31 42° WSW
SL-16 R/B 3.2 04:00:29 10° NNW 04:05:58 45° NE 04:11:24 10° ESE
CZ-2C R/B 2.5 04:01:15 10° N 04:06:09 55° WNW 04:08:51 25° SW
ARIANE 5 R/B 4.0 04:03:04 10° N 04:05:38 19° NW 04:05:38 19° NW
CREW DRAGON DEMO-1 DEB 3.0 04:08:42 57° S 04:08:42 57° S 04:11:32 10° ESE
USA 290 3.1 04:06:41 14° S 04:09:14 51° ESE 04:12:25 10° NE
ISS -2.8 04:09:06 33° SSW 04:09:59 42° SSE 04:13:12 10° E
Cosmos 2251 Rocket 3.9 04:06:30 10° S 04:11:49 66° ESE 04:17:07 10° NNE
Cosmos 2333 Rocket 4.4 04:11:12 10° NNW 04:15:16 19° NNE 04:19:17 10° ENE
ADEOS II 4.2 04:16:04 10° NNW 04:16:21 10° NW 04:16:21 10° NW
SKYMED 2 3.6 04:14:20 10° SSE 04:18:40 82° ENE 04:23:03 10° NNW
Cosmos 1697 Rocket 3.2 04:16:50 26° WNW 04:18:59 35° WSW 04:24:03 10° S
Lacrosse 4 Rocket 1.8 04:18:22 36° WNW 04:19:08 40° NW 04:23:01 10° NNE
Meteor 1-31 Rocket 2.9 04:16:57 10° NNE 04:20:54 79° ESE 04:24:51 10° S
Cosmos 1455 3.9 04:17:34 10° N 04:21:09 35° ENE 04:24:42 10° SE
PSLV R/B 4.1 04:17:11 10° SSE 04:21:23 77° ENE 04:25:38 10° NNW
COSMOS 2406 3.3 04:21:37 20° WSW 04:25:24 54° NW 04:30:59 10° NNE
CZ-4B R/B 3.8 04:21:39 10° NNE 04:25:36 52° E 04:29:42 10° S
[s.n.46727] 4.1 04:25:26 20° SSW 04:26:42 30° SSE 04:29:11 10° E
[s.n.46723] 4.2 04:25:27 20° SSW 04:26:47 31° SSE 04:29:19 10° E
[s.n.46707] 4.1 04:25:36 20° SSW 04:26:52 31° SSE 04:29:22 10° E
[s.n.46708] 4.1 04:25:41 20° SSW 04:26:57 31° SSE 04:29:27 10° E
[s.n.46719] 4.1 04:25:47 20° SSW 04:27:03 31° SSE 04:29:33 10° E
[s.n.46724] 4.1 04:25:51 20° SSW 04:27:08 31° SSE 04:29:38 10° E
[s.n.46687] 4.1 04:25:57 20° SSW 04:27:13 31° SSE 04:29:43 10° E
[s.n.46696] 4.1 04:26:02 20° SSW 04:27:20 31° SSE 04:29:49 10° E
[s.n.46720] 4.1 04:26:07 20° SSW 04:27:25 31° SSE 04:29:55 10° E
[s.n.46676] 4.1 04:26:12 20° SSW 04:27:30 31° SSE 04:30:00 10° E
Lacrosse 5 rocket 1.0 04:25:46 28° SW 04:27:35 84° SSE 04:31:27 10° ENE
[s.n.46721] 4.1 04:26:18 20° SSW 04:27:36 31° SSE 04:30:06 10° E
[s.n.46728] 4.1 04:26:23 20° SSW 04:27:41 31° SSE 04:30:11 10° E
[s.n.46690] 4.1 04:26:28 20° SSW 04:27:46 31° SSE 04:30:17 10° E
[s.n.46694] 4.1 04:26:32 20° SSW 04:27:49 31° SSE 04:30:20 10° E
[s.n.46702] 4.1 04:26:39 20° SSW 04:27:58 31° SSE 04:30:28 10° E
[s.n.46679] 4.1 04:26:42 20° SSW 04:28:01 31° SSE 04:30:32 10° E
[s.n.46704] 4.1 04:26:44 20° SSW 04:28:06 32° SSE 04:30:39 10° E
[s.n.46712] 4.1 04:26:50 20° SSW 04:28:09 31° SSE 04:30:40 10° E
FENGYUN 3A 3.6 04:22:44 10° NNE 04:28:12 77° WNW 04:33:38 10° SSW
[s.n.46711] 4.1 04:26:58 20° SSW 04:28:18 31° SSE 04:30:49 10° E
[s.n.46684] 4.1 04:27:01 20° SSW 04:28:21 31° SSE 04:30:51 10° E
[s.n.46706] 4.1 04:27:09 20° SSW 04:28:28 31° SSE 04:30:59 10° E
[s.n.46678] 4.1 04:27:07 20° SSW 04:28:30 32° SSE 04:31:04 10° E
[s.n.46677] 4.1 04:27:17 20° SSW 04:28:37 31° SSE 04:31:08 10° E
[s.n.46671] 4.1 04:27:22 20° SSW 04:28:42 31° SSE 04:31:13 10° E
[s.n.46675] 4.1 04:27:27 20° SSW 04:28:47 32° SSE 04:31:18 10° E
[s.n.46674] 4.1 04:27:32 20° SSW 04:28:53 32° SSE 04:31:24 10° E
[s.n.46698] 4.1 04:27:38 20° SSW 04:28:58 32° SSE 04:31:29 10° E
Meteor 2-5 Rocket 3.7 04:23:18 10° SSW 04:28:59 66° WNW 04:34:51 10° N
[s.n.46699] 4.1 04:27:39 20° SSW 04:29:03 32° SSE 04:31:37 10° E
[s.n.46715] 4.1 04:27:48 20° SSW 04:29:09 32° SSE 04:31:41 10° E
[s.n.46714] 4.1 04:27:53 20° SSW 04:29:15 32° SSE 04:31:45 10° E
[s.n.46726] 4.1 04:27:59 20° SSW 04:29:21 32° SSE 04:31:51 10° E
[s.n.46703] 4.1 04:28:03 20° SSW 04:29:25 32° SSE 04:31:57 10° E
[s.n.46713] 4.1 04:28:09 20° SSW 04:29:31 32° SSE 04:32:02 10° E
[s.n.46717] 4.1 04:28:14 20° SSW 04:29:37 32° SSE 04:32:08 10° E
[s.n.46691] 4.1 04:28:16 20° SSW 04:29:41 32° SSE 04:32:16 10° E
[s.n.46693] 4.1 04:28:25 20° SSW 04:29:48 32° SSE 04:32:20 10° E
[s.n.46672] 4.1 04:28:30 20° SSW 04:29:54 32° SSE 04:32:25 10° E
[s.n.46701] 4.1 04:28:35 20° SSW 04:29:58 32° SSE 04:32:30 10° E
[s.n.46685] 4.1 04:28:40 20° SSW 04:30:04 32° SSE 04:32:36 10° E
[s.n.46709] 4.0 04:28:46 20° SSW 04:30:09 32° SSE 04:32:41 10° E
[s.n.46683] 4.1 04:28:50 19° SSW 04:30:14 32° SSE 04:32:45 10° E
Cosmos 2360 Rocket 3.6 04:25:06 10° NNW 04:30:17 35° NE 04:35:25 10° ESE
[s.n.46695] 4.0 04:28:55 19° SSW 04:30:19 32° SSE 04:32:51 10° E
[s.n.46688] 4.0 04:29:02 19° SSW 04:30:25 32° SSE 04:32:57 10° E
[s.n.46729] 4.0 04:29:06 19° SSW 04:30:30 32° SSE 04:33:02 10° E
[s.n.46697] 4.0 04:29:09 19° SSW 04:30:34 32° SSE 04:33:05 10° E
[s.n.46725] 4.0 04:29:14 19° SSW 04:30:38 32° SSE 04:33:10 10° E
[s.n.46682] 4.0 04:29:19 19° SSW 04:30:44 33° SSE 04:33:15 10° E
[s.n.46680] 4.0 04:29:25 19° SSW 04:30:49 33° SSE 04:33:21 10° E
[s.n.46718] 4.0 04:29:30 19° SSW 04:30:55 33° SSE 04:33:27 10° E
[s.n.46710] 4.0 04:29:35 19° SSW 04:31:00 33° SSE 04:33:32 10° E
[s.n.46673] 4.0 04:29:46 19° SSW 04:31:11 33° SSE 04:33:43 10° E
[s.n.46700] 4.0 04:29:51 19° SSW 04:31:17 33° SSE 04:33:49 10° E
[s.n.46705] 4.0 04:29:56 19° SSW 04:31:22 33° SSE 04:33:55 10° E
[s.n.46692] 4.0 04:30:02 19° SSW 04:31:29 33° SSE 04:34:01 10° E
[s.n.46686] 4.0 04:30:07 19° SSW 04:31:33 33° SSE 04:34:06 10° E
[s.n.46716] 4.0 04:30:12 19° SSW 04:31:39 33° SSE 04:34:12 10° E
[s.n.46722] 4.0 04:30:17 19° SSW 04:31:45 33° SSE 04:34:17 10° E
[s.n.46689] 4.0 04:30:23 19° SSW 04:31:50 33° SSE 04:34:23 10° E
[s.n.46681] 4.0 04:30:28 19° SSW 04:31:56 33° SSE 04:34:29 10° E
DNEPR-1 R/B 4.4 04:27:13 11° NW 04:32:32 58° NE 04:37:05 10° ESE
USA 238 DEB 4.2 04:28:30 22° W 04:32:32 44° NNW 04:39:17 10° NE
USA 238 4.2 04:28:36 22° W 04:32:38 44° NNW 04:39:23 10° NE
NOSS 3-2 (A) 4.2 04:31:50 21° WNW 04:35:29 40° NNW 04:42:09 10° NE
Cosmos 1726 Rocket 3.9 04:34:13 10° NNW 04:38:26 42° W 04:42:38 10° SSW
SAR-Lupe-4 4.0 04:35:14 10° S 04:38:37 40° W 04:42:01 10° NNW
ERS-2 3.7 04:37:46 10° SSW 04:39:16 18° SW 04:39:16 18° SW
ATLAS 3B R/B 2.6 04:34:21 10° SW 04:40:56 89° NW 04:47:42 10° NE
USA 234 3.6 04:35:07 10° ENE 04:41:30 57° N 04:46:42 16° WNW
Cosmos 1980 Rocket 2.6 04:36:39 10° NW 04:41:52 41° WSW 04:47:04 10° S
Cosmos 2098 Rocket 4.5 04:37:32 10° SSE 04:43:09 51° E 04:47:39 10° NNE
Cosmos 2228 3.8 04:39:42 10° NNW 04:43:28 29° W 04:47:15 10° SSW
Abrixas rocket 3.9 04:43:59 15° SW 04:44:29 15° SSW 04:46:15 10° SSE
ATLAS CENTAUR R/B 4.2 04:44:02 10° SSE 04:46:45 18° ESE 04:49:25 10° ENE
SL-16 R/B 4.5 04:45:39 10° N 04:47:20 11° N 04:49:02 10° NNE
Cosmos 1092 Rocket 4.0 04:42:11 10° SSW 04:48:17 60° WNW 04:54:29 10° N
ADEOS Rocket 4.0 04:45:23 10° SW 04:49:09 19° W 04:53:03 10° NW
ADEOS 3.7 04:44:08 10° N 04:49:13 52° WNW 04:54:16 10° SW
CZ-2C R/B 4.4 04:44:25 10° SE 04:49:25 34° ENE 04:54:26 10° N
Aureole 3 3.9 04:48:13 10° NNW 04:52:05 46° W 04:56:56 10° SSW
Nadezhda 4 Rocket 4.4 04:47:07 10° SW 04:52:45 37° WNW 04:58:27 10° N
Cosmos 2344 4.1 04:47:42 16° W 04:53:38 46° NNW 05:02:20 10° NE
CZ-3 R/B 4.4 04:39:58 10° WSW 04:53:41 21° SSW 05:00:00 10° SSE
Cosmos 407 Rocket 4.4 04:49:01 10° S 04:53:59 53° ESE 04:59:02 10° NNE
Cosmos 1400 Rocket 3.5 04:51:29 10° NNW 04:54:57 30° W 04:58:22 10° SSW
CZ-4B R/B 4.1 04:50:54 10° N 04:55:01 49° WNW 04:58:56 10° SW
Cosmos 2219 Rocket 4.0 04:51:31 10° NNW 04:56:15 26° NE 05:00:57 10° E
IDEFIX/ARIANE 42P 4.4 04:57:28 10° NNW 04:58:52 11° NW 04:59:41 11° NW
Cosmos 1607 4.5 04:56:35 10° NW 05:03:02 62° NE 05:09:28 10° ESE
GRACE-FO 1 4.5 04:59:29 10° S 05:03:08 72° W 05:06:47 10° N
GRACE-FO 2 4.5 04:59:52 10° S 05:03:30 72° W 05:07:10 10° N
S3M 4.1 05:00:29 10° N 05:06:49 88° WSW 05:13:11 10° S
COSMO-SKYMED 1 3.1 05:02:52 10° SSW 05:06:52 36° W 05:10:55 10° NNW
Cosmos 1300 4.1 05:05:39 10° NW 05:08:17 18° W 05:10:55 10° SW
ARGOS Delta rocket 4.3 05:03:09 10° N 05:08:21 51° WNW 05:13:37 10° SW
CZ-4B R/B 3.3 05:08:04 10° WSW 05:09:48 13° W 05:10:16 13° W
ALOS 3.0 05:06:43 10° N 05:10:53 32° WNW 05:15:01 10° SW
Cosmos 2292 Rocket 3.6 05:07:50 10° S 05:11:03 63° E 05:15:05 10° NNE
Cosmos 1655 Rocket 4.3 05:05:50 10° S 05:12:05 75° E 05:18:27 10° NNE
Meteor 2-10 Rocket 3.6 05:08:21 10° NNW 05:13:14 53° W 05:18:10 10° S
Cosmos 2322 Rocket 2.2 05:08:23 10° NNW 05:14:07 84° WSW 05:19:46 10° SSE
Cosmos 1689 Rocket 3.5 05:14:05 10° SW 05:16:16 19° W 05:18:28 10° NW
Cosmos 2266 Rocket 4.5 05:11:24 10° S 05:17:21 65° E 05:23:23 10° NNE
Cosmos 1626 3.7 05:15:14 10° WSW 05:17:32 16° WNW 05:19:51 10° NNW
deb Chang Zheng 4 4.4 05:17:17 10° N 05:20:54 28° WNW 05:24:32 10° WSW
MOS 1 Rocket 3.0 05:17:42 10° S 05:21:59 79° WSW 05:26:20 10° NNW
Cosmos 1833 Rocket 3.5 05:16:59 10° WSW 05:22:01 32° NW 05:27:05 10° NNE
Cosmos 2237 4.4 05:17:09 10° NNW 05:22:52 78° ENE 05:28:35 10° SE
H-2A R/B 2.8 05:21:41 10° NNE 05:26:08 80° ESE 05:30:24 10° SSW
Cosmos 2084 3.5 05:21:54 10° SW 05:26:15 73° NW 05:30:42 10° NE
Cosmos 1315 Rocket 3.4 05:22:58 10° NNW 05:26:49 38° W 05:30:39 10° SSW
Cosmos 2058 Rocket 4.2 05:25:03 10° NW 05:28:35 23° W 05:32:05 10° SW
Cosmos 1484 Rocket 4.3 05:27:34 10° NNW 05:30:09 17° WNW 05:32:42 10° WSW
Cosmos 192 4.5 05:25:31 10° NNW 05:30:26 60° WSW 05:35:17 10° S
Elektron 1 3.9 05:29:10 10° WSW 05:32:00 54° NNW 05:35:18 10° NE
Okean 1-7 Rocket 4.3 05:28:10 10° SW 05:32:19 34° WNW 05:36:26 10° N
CZ-4B R/B 4.1 05:27:11 10° NNE 05:32:28 53° E 05:37:37 10° S
H-2A R/B 2.7 05:29:12 10° N 05:32:59 63° WNW 05:36:47 10° SSW
SL-27 R/B 2.9 05:29:44 10° SSW 05:33:19 69° ESE 05:36:56 10° NNE
Cosmos 1758 Rocket 4.2 05:30:34 10° S 05:35:00 64° E 05:39:27 10° NNE
Cosmos 1553 Rocket 4.3 05:30:15 10° NNW 05:35:58 42° W 05:41:36 10° SSW
NOSS 3-2 (C) 4.5 05:31:37 10° W 05:37:19 35° NNW 05:43:53 10° NE
